Rochester/St. Mary\'s Hospita, MN

11:54 AM CDT on June 19, 2018 (GMT -0500)
Rochester/St. Mary\'s Hospita

Weather History for K9MN - October, 2017

Change the Weather History Date:

Thursday, October 5, 2017

  Actual Average (KRST) Record (KRST)
Temperature  
Mean Temperature 52 °F -  
Max Temperature 59 °F 62 °F 85 °F (1938)
Min Temperature 46 °F 40 °F 20 °F (1935)
Degree Days  
Heating Degree Days 13    
Growing Degree Days 2 (Base 50)    
Moisture  
Dew Point 47 °F    
Average Humidity 86    
Maximum Humidity 100    
Minimum Humidity 63    
Precipitation  
Precipitation 0.24 in - - ()
Sea Level Pressure  
Sea Level Pressure 30.15 in    
Wind  
Wind Speed 2 mph (ESE)    
Max Wind Speed 18 mph    
Max Gust Speed 23 mph    
Visibility 9 miles    
Events      
Averages and records for this station are not official NWS values.
T = Trace of Precipitation, MM = Missing Value Source: NWS Daily Summary

Daily Weather History Graph

Daily Weather History Graph

Search for Another Location

Airport or City:

Astronomy

Oct. 05, 2017 Rise Set
Actual Time 7:12 AM CDT 6:43 PM CDT
Civil Twilight 6:43 AM CDT 7:11 PM CDT
Nautical Twilight 6:10 AM CDT 7:45 PM CDT
Astronomical Twilight 5:36 AM CDT 8:18 PM CDT
Moon 7:06 PM CDT (10/5) 6:50 AM CDT (10/5)
Length of Visible Light 12h 27m
Length of Day
11h 30m
Full, 100% of the Moon is Illuminated
Oct 5
Full
Oct 5
Full
Oct 12
Last Quarter
Oct 19
New
Oct 27
First Quarter

Hourly Weather History & Observations

Time (CDT) Temp. Dew Point Humidity Pressure Visibility Wind Dir Wind Speed Gust Speed Precip Events Conditions
12:12 AM 47.7 °F 41.7 °F 80% 30.26 in 10.0 mi Calm Calm - N/A   Clear
12:31 AM 47.7 °F 41.9 °F 80% 30.26 in 10.0 mi Calm Calm - N/A   Clear
12:52 AM 47.3 °F 41.9 °F 82% 30.25 in 10.0 mi Calm Calm - N/A   Clear
1:12 AM 46.8 °F 41.9 °F 83% 30.25 in 10.0 mi Calm Calm - N/A   Clear
1:31 AM 46.6 °F 41.9 °F 84% 30.25 in 10.0 mi Calm Calm - N/A   Clear
1:52 AM 47.1 °F 41.9 °F 82% 30.25 in 10.0 mi Calm Calm - N/A   Scattered Clouds
2:12 AM 46.8 °F 41.9 °F 83% 30.25 in 10.0 mi Calm Calm - N/A   Mostly Cloudy
2:31 AM 46.9 °F 41.4 °F 81% 30.25 in 10.0 mi Calm Calm - N/A   Overcast
2:52 AM 47.8 °F 41.5 °F 79% 30.24 in 10.0 mi Calm Calm - N/A   Overcast
3:12 AM 47.8 °F 41.9 °F 80% 30.24 in 10.0 mi Calm Calm - N/A   Overcast
3:32 AM 47.3 °F 41.4 °F 80% 30.24 in 10.0 mi Calm Calm - N/A   Mostly Cloudy
3:52 AM 47.1 °F 41.5 °F 81% 30.22 in 10.0 mi SE 3.5 mph - N/A   Mostly Cloudy
4:12 AM 46.4 °F 41.9 °F 84% 30.21 in 10.0 mi Calm Calm - N/A   Mostly Cloudy
4:32 AM 46.6 °F 42.1 °F 84% 30.22 in 10.0 mi Calm Calm - N/A   Mostly Cloudy
4:52 AM 48.9 °F 42.4 °F 78% 30.20 in 10.0 mi Calm Calm - N/A   Overcast
5:12 AM 47.7 °F 42.4 °F 82% 30.21 in 10.0 mi Calm Calm - N/A   Overcast
5:32 AM 48.6 °F 42.1 °F 78% 30.20 in 10.0 mi Calm Calm - N/A   Overcast
5:52 AM 49.8 °F 41.5 °F 73% 30.19 in 10.0 mi Calm Calm - N/A   Overcast
6:12 AM 48.4 °F 44.1 °F 85% 30.19 in 10.0 mi SE 3.5 mph - 0.01 in   Overcast
6:32 AM 49.1 °F 45.7 °F 88% 30.19 in 10.0 mi SSE 3.5 mph - 0.01 in   Overcast
6:52 AM 49.1 °F 45.3 °F 87% 30.19 in 10.0 mi Calm Calm - 0.01 in   Overcast
7:12 AM 49.3 °F 46.4 °F 90% 30.20 in 10.0 mi Calm Calm - N/A   Overcast
7:32 AM 50.4 °F 47.3 °F 89% 30.19 in 10.0 mi Calm Calm - N/A   Overcast
7:52 AM 50.2 °F 47.8 °F 92% 30.21 in 10.0 mi WNW 8.1 mph - N/A   Overcast
8:12 AM 49.5 °F 45.5 °F 86% 30.20 in 10.0 mi SSW 3.5 mph - N/A   Overcast
8:32 AM 50.4 °F 47.1 °F 89% 30.20 in 10.0 mi SSE 4.6 mph - N/A   Overcast
8:52 AM 50.0 °F 46.6 °F 88% 30.20 in 10.0 mi SSE 6.9 mph - 0.01 in   Overcast
9:12 AM 50.9 °F 48.9 °F 93% 30.20 in 10.0 mi SSE 4.6 mph - N/A   Overcast
9:32 AM 51.3 °F 49.1 °F 92% 30.20 in 10.0 mi SSE 3.5 mph - N/A   Overcast
9:52 AM 52.5 °F 48.9 °F 88% 30.20 in 10.0 mi Calm Calm - N/A   Overcast
10:12 AM 52.9 °F 49.5 °F 88% 30.19 in 10.0 mi SE 4.6 mph - N/A   Overcast
10:32 AM 53.8 °F 49.3 °F 85% 30.18 in 10.0 mi SE 5.8 mph - N/A   Overcast
10:52 AM 54.7 °F 48.4 °F 79% 30.18 in 10.0 mi SE 4.6 mph - N/A   Overcast
11:12 AM 55.8 °F 48.0 °F 75% 30.18 in 10.0 mi SE 6.9 mph - N/A   Overcast
11:32 AM 56.7 °F 47.8 °F 72% 30.18 in 10.0 mi SE 4.6 mph - N/A   Overcast
11:52 AM 57.6 °F 47.7 °F 70% 30.17 in 10.0 mi SE 6.9 mph - N/A   Overcast
12:11 PM 57.2 °F 46.2 °F 67% 30.17 in 10.0 mi SE 6.9 mph - N/A   Overcast
12:32 PM 57.6 °F 45.3 °F 64% 30.17 in 10.0 mi SE 6.9 mph - N/A   Overcast
12:52 PM 56.5 °F 46.4 °F 69% 30.16 in 10.0 mi SE 5.8 mph - N/A   Overcast
1:11 PM 57.2 °F 46.4 °F 67% 30.15 in 10.0 mi East 4.6 mph - N/A   Overcast
1:32 PM 57.6 °F 46.2 °F 66% 30.14 in 10.0 mi ESE 5.8 mph - N/A   Overcast
1:52 PM 57.9 °F 46.2 °F 65% 30.12 in 10.0 mi East 5.8 mph - N/A   Overcast
2:11 PM 58.1 °F 46.2 °F 65% 30.12 in 10.0 mi ENE 3.5 mph - N/A   Overcast
2:32 PM 58.5 °F 46.4 °F 64% 30.10 in 10.0 mi East 5.8 mph - N/A   Overcast
2:52 PM 58.8 °F 46.2 °F 63% 30.12 in 10.0 mi Calm Calm - N/A   Overcast
3:11 PM 55.2 °F 47.1 °F 74% 30.10 in 5.0 mi East 6.9 mph - 0.02 in   Overcast
3:32 PM 55.0 °F 49.1 °F 80% 30.08 in 10.0 mi ESE 5.8 mph - 0.02 in   Overcast
3:52 PM 52.9 °F 49.3 °F 88% 30.10 in 10.0 mi ESE 5.8 mph - 0.05 in   Overcast
4:12 PM 53.1 °F 51.3 °F 94% 30.09 in 7.0 mi ESE 5.8 mph - 0.02 in   Overcast
4:32 PM 52.7 °F 51.1 °F 94% 30.07 in 10.0 mi East 4.6 mph - 0.04 in   Overcast
4:52 PM 52.0 °F 50.9 °F 96% 30.02 in 10.0 mi ESE 18.4 mph 23.0 mph 0.05 in   Overcast
5:12 PM 52.0 °F 51.3 °F 97% 30.08 in 10.0 mi Calm Calm - 0.01 in   Overcast
5:32 PM 52.3 °F 51.8 °F 98% 30.08 in 10.0 mi ENE 4.6 mph 17.3 mph 0.04 in   Overcast
5:52 PM 52.7 °F 51.8 °F 97% 30.08 in 10.0 mi ENE 3.5 mph - 0.05 in   Mostly Cloudy
6:12 PM 52.9 °F 52.0 °F 97% 30.07 in 10.0 mi Calm Calm - N/A   Overcast
6:32 PM 52.7 °F 51.4 °F 95% 30.07 in 10.0 mi ESE 5.8 mph - N/A   Overcast
6:52 PM 52.7 °F 52.2 °F 98% 30.06 in 10.0 mi East 4.6 mph - N/A   Overcast
7:12 PM 52.7 °F 52.5 °F 99% 30.06 in 10.0 mi East 3.5 mph - N/A   Overcast
7:32 PM 52.9 °F 52.2 °F 97% 30.07 in 10.0 mi East 5.8 mph - N/A   Overcast
7:52 PM 52.5 °F 52.0 °F 98% 30.07 in 7.0 mi ESE 4.6 mph - N/A   Overcast
8:12 PM 52.7 °F 52.7 °F 100% 30.06 in 7.0 mi East 4.6 mph - 0.01 in   Overcast
8:32 PM 52.7 °F 52.7 °F 100% 30.07 in 5.0 mi NNE 3.5 mph - 0.01 in   Overcast
8:52 PM 52.7 °F 52.7 °F 100% 30.07 in 4.0 mi Calm Calm - 0.03 in   Overcast
9:12 PM 52.7 °F 52.7 °F 100% 30.08 in 3.0 mi NNE 3.5 mph - 0.01 in   Overcast
9:32 PM 52.3 °F 52.5 °F 100% 30.08 in 4.0 mi North 3.5 mph - 0.02 in   Overcast
9:52 PM 52.2 °F 52.3 °F 100% 30.08 in 5.0 mi NE 3.5 mph - 0.03 in   Overcast
10:12 PM 52.2 °F 52.3 °F 100% 30.08 in 5.0 mi NE 3.5 mph - N/A   Overcast
10:32 PM 52.2 °F 52.3 °F 100% 30.08 in 7.0 mi Calm Calm - N/A   Overcast
10:52 PM 52.2 °F 52.3 °F 100% 30.08 in 7.0 mi NNE 3.5 mph - 0.01 in   Overcast
11:12 PM 52.3 °F 52.3 °F 100% 30.08 in 5.0 mi ENE 3.5 mph - N/A   Overcast
11:32 PM - - N/A% 30.07 in 4.0 mi NE 3.5 mph - N/A   Overcast
11:52 PM 52.2 °F 52.3 °F 100% 30.07 in 3.0 mi East 3.5 mph - N/A   Overcast